Zurück zum Katalog

CZ-6A DEB

AktivSSO
NORAD 54431·DEBRIS·🇨🇳 China

Gestartet Nov 11, 2022 von Taiyuan Satellite Launch Center

Loading…

Nächste Überflüge (nächste 24 Stunden)

TLE

AktuellSource: Space-Track

Epoche: Sep 14, 2026, 23:00 UTC

1 54431U 22151FF  26257.95896797  .00000703  00000-0  44716-3 0  9995
2 54431  98.9807 261.2503 0118775 103.7625 257.6794 14.03480644196226

Verfolge CZ-6A DEB in Echtzeit mit AllMySat

Download on the App Store